Regional Weather Roundup
Issued by NWS San Diego, CA

Home | Current Version | Previous Version | Text Only | Print | Product List | Glossary On
Versions: 1 2 3 4 5 6 7 8 9 10 11 12 13 14 15 16 17 18 19 20 21 22 23 24 25 26 27 28 29 30 31 32 33 34 35 36 37 38 39 40 41 42 43 44 45 46 47 48 49 50
000
ASUS46 KSGX 281311
RWRSGX

SAN DIEGO HOURLY WEATHER ROUNDUP
NATIONAL WEATHER SERVICE SAN DIEGO CA
600 AM PDT SAT MAR 28 2015

NOTE: "FAIR" INDICATES FEW OR NO CLOUDS BELOW 12,000 FEET WITH NO
SIGNIFICANT WEATHER AND/OR OBSTRUCTIONS TO VISIBILITY.

CAZ042-043-060-061-PZZ750-775-281400-

GREATER SAN DIEGO AREA

CITY           SKY/WX    TMP DP  RH WIND       PRES   REMARKS
LINDBERGH FLD  CLOUDY    61  58  90 N3        30.08R FOG
POINT LOMA       N/A     58  56  94 NW6         N/A
CHULA VISTA      N/A     60  59  97 CALM      29.99S
IMPERIAL BEACH CLOUDY    59  58  96 E5        30.07R
BROWN FIELD    CLEAR     54  51  90 CALM      30.06R
MIRAMAR MCAS   FOG       57  54  89 CALM      30.06R VSB 1/2
MONTGOMERY FLD FOG       58  57  97 NE3       30.07R VSB 1/2

$$

NORTH SAN DIEGO COUNTY

CITY           SKY/WX    TMP DP  RH WIND       PRES   REMARKS
CAMP PENDLETON CLOUDY    52  48  86 NE3       30.07R FOG
OCEANSIDE AP   CLOUDY    55  53  93 NE5       30.06R FOG
VISTA            N/A     55  50  82 CALM      30.04S
CARLSBAD       FOG       57  56  96 E3        30.06R VSB 1/4
FALLBROOK        N/A     53  53 100 CALM      30.06R
SAN MARCOS       N/A    N/A N/A N/A CALM      30.03R
POWAY            N/A     49  44  81 CALM      30.07S

$$

EAST SAN DIEGO COUNTY

CITY           SKY/WX    TMP DP  RH WIND       PRES   REMARKS
RAMONA         CLEAR     41  35  79 CALM      30.08R
SANTEE LAKES     N/A     51  46  84 CALM      30.07R
LA MESA          N/A     56  55  97 CALM      29.99R
MT. LAGUNA OBS   N/A     57  12  16 N3        29.80S
CAMPO            N/A     38  28  67 N3        30.10R

$$

ORANGE COUNTY AND THE LOS ANGELES BASIN

CITY           SKY/WX    TMP DP  RH WIND       PRES   REMARKS
JOHN WAYNE AP  PTCLDY    59  56  89 S3        30.06S FOG
LAKE FOREST FR   N/A     57  43  59 CALM      29.95R
SANTA ANA        N/A     59  53  80 CALM      30.01S
HUNTINGTON BCH   N/A     60  59  96 SE2       30.07S
LOS ALAMITOS   CLOUDY    61  61 100 E2        30.06R
FULLERTON      CLOUDY    62  57  83 E3        30.05S
LONG BEACH     CLOUDY    62  59  90 SE5       30.06R
L.A. AP        FOG       57  57 100 E3        30.06S VSB 1/4
L.A. DOWNTOWN  PTCLDY    61  58  90 E3        30.05S

$$

THE INLAND EMPIRE

CITY           SKY/WX    TMP DP  RH WIND       PRES   REMARKS
CORONA         CLEAR     44  39  82 CALM      30.07R
CHINO          CLEAR     53  47  79 CALM      30.08R HAZE
ONTARIO        CLEAR     61  43  51 CALM      30.07R
RIVERSIDE AP   CLEAR     58  41  53 CALM      30.07R
MARCH ARB      CLEAR     44  32  61 CALM      30.08R
HORSETHIEF CYN   N/A     57  26  30 S1        30.01R
MENIFEE          N/A     52  42  71 CALM      30.12S
HEMET EAST       N/A     61  23  22 CALM      30.04R
FRENCH VALLEY  FAIR      50  37  62 CALM      30.08S
TEMECULA         N/A     53  45  75 CALM      30.05R

$$

SAN BERNARDINO AND RIVERSIDE COUNTY MOUNTAINS

CITY           SKY/WX    TMP DP  RH WIND       PRES   REMARKS
BIG BEAR AP    CLEAR     30  23  74 CALM      30.31S
ANGELUS OAKS     N/A     47  25  42 CALM      30.00S

$$

SOUTHERN DESERT INCLUDING THE COACHELLA VALLEY

CITY           SKY/WX    TMP DP  RH WIND       PRES   REMARKS
PALM SPRINGS   CLEAR     70  37  29 CALM      29.99R
THOUSAND PALMS   N/A     79  26  14 W8        29.95S
THERMAL        CLEAR     53  37  54 CALM      29.94R
BLYTHE         CLEAR     61  31  32 N6        29.99R
IMPERIAL AP    CLEAR     63  37  38 W5        29.96R
EL CENTRO NAS  CLEAR     62  31  31 N3        29.96R
YUMA AZ        CLEAR     66  40  38 CALM      29.97R

$$

UPPER DESERT

CITY           SKY/WX    TMP DP  RH WIND       PRES   REMARKS
VICTORVILLE AP CLEAR     54  28  37 CALM      30.13S
HESPERIA         N/A     54  34  47 CALM      30.16S
APPLE VALLEY     N/A     46  35  66 CALM      30.19S
PALMDALE       CLEAR     54  32  43 S6        30.13R
LANCASTER      CLEAR     58  42  55 W9        30.12R
EDWARDS AFB    CLEAR     55  38  53 S9        30.09R
DAGGETT        CLEAR     61  30  31 W10       30.09R
29 PALMS N     CLEAR     57  28  33 NW5       30.15R
NEEDLES        CLEAR     63  25  23 NW7       30.02R

$$

REGIONAL REPORTS

CITY           SKY/WX    TMP DP  RH WIND       PRES   REMARKS
SANTA BARBARA  CLEAR     57  54  89 NE8       30.02R
SANDBERG       CLEAR     58  40  51 NW13      30.21R
MT. WILSON       N/A     54  19  26 W2          N/A
LAS VEGAS NV   CLEAR     63  28  26 SW8       30.02R
PHOENIX AZ     CLEAR     65  31  28 E7        30.03R
TIJUANA        CLEAR     54  50  87 NW2       30.09  FOG
ENSENADA NW      N/A     58  32  37 NE3       30.03R

$$

OFFSHORE ISLANDS

CITY           SKY/WX    TMP DP  RH WIND       PRES   REMARKS
CATALINA ARPT  CLEAR     69  35  28 CALM      30.09S
SAN NICOLAS IS CLOUDY   N/A N/A N/A W17       30.05S FOG

$$

MARINE AND OFFSHORE BUOY REPORTS

STATION/POSITION SKY/WX   TEMP    WIND        PRES    SWELL
                          AIR SEA DIR/SP/G            HT/PER/DIR
                          (F)     (DEG/KT/KT) (MB)    (FT/S/D)
TANNER BANKS               58 61  320/ 16/ 19 1017.7R   5/350/14
S CLEMENTE BASIN           60 65  290/  8/ 10 1017.5R   5/250/15
SAN NICOLAS IS.               60                N/A     5/270/14
SO. S. ROSA ISLA           58 59  320/ 16/ 19 1016.6F   5/14
W. S. BARBARA CH           54 58  320/ 25/ 29 1016.1F   5/300/13
S. MONICA BASIN            60 63  260/  4/  4 1017.4R   3/250/16
S PEDRO CHANNEL               64                N/A     2/210/14
DANA POINT                    65                N/A     3/200/18
CMP PENDLETON NS              65                N/A     3/220/17
OCEANSIDE OFFSHR              66                N/A     3/210/15
TORREY PINES OTR              66                N/A     3/220/15
MISSION BAY BUOY              67                N/A     3/190/18
SAN DIEGO BAY                 69              1018.2R
POINT LOMA SOUTH              66                N/A     3/200/18

$$




USA.gov is the U.S. government's official web portal to all federal, state and local government web resources and services.